www.pogodaiklimat.ru

Погода и климат >> Архив погоды >> Индонезия >> Факфак


ПОГОДА в Факфаке

  • Прогноз погоды в Факфаке
  • Монитор погоды в Факфаке

АРХИВ ПОГОДЫ в Факфаке

Время (UTC), дата Ветер
(напр.,м/с)
 
Видим.   Явления Облачность Т
(С)
Тd
(С)
f
(%)
Тe
(С)
Тes
(С)
Комфортность P
(гПа)
Po
(гПа)
Тmin
(С)
Tmax
(С)
R
(мм)
R24
(мм)
S
(см)
15 10.09 Ю 4 5000 м 9/5 300 м
[Cb cap Ac trans Ci sp]
+23.7 +21.6 88 +30 +30 очень
душно
1014.6 998.4
21 10.09 Ю 4 5000 м осадки на расстоянии 9/5 270 м
[Cb cap Ac As Ci sp]
+23.5 +21.2 87 +30 +30 очень
душно
1014.4 998.2
00 11.09 Ю 5 7000 м в посл. час дождь 10/5 270 м
[Cb calv Ac inh Cs]
+23.3 +21.0 87 +31 +32 очень
душно
1015.4 999.2 +22.7 0.8
03 11.09 Ю 5 4000 м слаб. дождь 10/5 240 м
[Cb calv Ac As Ci ing]
+23.9 +20.6 82 +30 +33 очень
душно
1014.2 998.0 0.0
06 11.09 Ю 8 2700 м осадки на расстоянии 9/4 300 м
[Cb cap Ac As Ci sp]
+24.7 +21.3 81 +31 +32 очень
душно
1011.9 995.8 0.0
09 11.09 ЮВ 4 7000 м 9/5 300 м
[Cb cap Ac As Ci sp]
+23.9 +21.3 85 +30 +30 очень
душно
1012.9 996.8
12 11.09 ЮВ 4 5000 м 9/4 330 м
[Cb cap Ac trans Ci sp]
+22.9 +18.9 78 +29 +29 очень
душно
1015.3 999.1 +27.1
15 11.09 штиль 0 5000 м 5/3 360 м
[Cu Sc Ac lent Ci sp]
+21.3 +16.7 75 +25 +25 комфорт 1015.0 998.8
21 11.09 СВ 2 5000 м осадки на расстоянии 10/5 270 м
[Cb cap Ac As Ci ing]
+20.7 +18.3 86 +25 +25 комфорт 1014.7 998.4
00 12.09 ЮВ 3 6000 м осадки на расстоянии 10/5 270 м
[Cb cap Ac cuf Ci ing]
+24.2 +20.6 80 +30 +32 очень
душно
1011.6 999.1 +19.9 0.0
03 12.09 Ю 5 6000 м в посл. час дождь 10/6 270 м
[Cb cap Ac cuf Ci ing]
+24.5 +21.5 83 +31 +34 очень
душно
1014.2 998.0 0.0
06 12.09 Ю 3 6000 м осадки на расстоянии 10/5 270 м
[Cb cap Ac cuf Ci ing]
+24.4 +22.1 87 +32 +34 очень
душно
1011.9 995.8 0.0
09 12.09 штиль 0 7000 м 9/4 300 м
[Cb cap Ac As Ci sp]
+24.8 +22.0 84 +32 +32 очень
душно
1012.4 996.3
12 12.09 штиль 0 5000 м 6/4 360 м
[Cu Sc Ac und Ci sp]
+22.5 +20.6 89 +29 +29 очень
душно
1014.6 998.4 +25.1
15 12.09 ЮВ 2 5000 м 8/4 300 м
[Cb cap Ac cuf Ci sp]
+22.7 +18.7 78 +28 +28 душно 1014.5 998.3
21 12.09 ЮВ 3 5000 м 10/5 300 м
[Cb cap Ac As Ci sp]
+22.3 +19.3 83 +28 +28 душно 1014.5 998.3
00 13.09 Ю 2 5000 м слаб. дождь 10/8
[Cb cap As op]
+24.5 +21.2 82 +31 +31 очень
душно
1015.8 999.6 +20.8 0.0
03 13.09 Ю 5 6000 м слаб. дождь 10/5 270 м
[Cb cap Ac cuf Ci ing]
+25.0 +22.4 86 +33 +36 очень
душно
1013.8 997.7 3
06 13.09 ЮВ 2 8000 м осадки на расстоянии 9/5 270 м
[Cb cap Ac cuf Ci ing]
+24.8 +22.6 88 +33 +36 очень
душно
1011.4 995.2 0.0
09 13.09 штиль 0 7000 м 9/4 300 м
[Cb cap Ac cuf Ci sp]
+24.7 +21.4 82 +31 +31 очень
душно
1012.4 996.2
12 13.09 СВ 2 6000 м 6/4 300 м
[Cb cap Ac lent Ci sp]
+22.7 +20.4 87 +29 +29 очень
душно
1014.4 998.2 +26.1
15 13.09 В 3 5000 м 8/4 300 м
[Cb cap Ac cuf Ci sp]
+22.4 +20.1 87 +29 +29 очень
душно
1015.2 999.0
21 13.09 СВ 2 8000 м 5/3 360 м
[Cu Sc Ac lent Ci sp]
+21.7 +19.5 87 +27 +27 душно 1014.9 998.7
00 14.09 Ю 2 10 км 6/4 360 м
[Cu Sc Ac trans Ci sp]
+25.3 +20.6 75 +31 +36 очень
душно
1016.3 1000.1 +20.8 3
03 14.09 ЮЗ 4 10 км 6/5 330 м
[Cb cap Ac trans Ci sp]
+26.2 +22.4 80 +34 +42 очень
душно
1013.8 997.7
09 14.09 Ю 4 7000 м слаб. дождь 10/5 300 м
[Cb cap Ac und Ci sp]
+23.8 +22.7 94 +31 +31 очень
душно
1012.6 996.4
12 14.09 С 2 4000 м слаб. дождь 10/5 300 м
[Cb cap Ac As Ci sp]
+23.3 +22.6 96 +32 +32 очень
душно
1014.2 998.0 +27.0 9
15 14.09 4000 м {дождь} н/о +22.4 +21.5 95 +30 +30 очень
душно
1014.2 998.0 0.0
21 14.09 СВ 2 6000 м 8/4 300 м
[Cb cap Ac cuf Ci sp]
+20.8 +20.5 98 +27 +27 душно 1014.8 998.6
00 15.09 штиль 0 8000 м {дождь} 6/4 360 м
[Cu Sc Ac lent Ci sp]
+24.5 +21.5 83 +31 +38 очень
душно
1015.3 999.1 +20.2 9
03 15.09 Ю 3 10 км 6/4 360 м
[Cu Sc Ac lent Ci sp]
+26.5 +22.6 79 +35 +44 очень
душно
1013.7 997.5
06 15.09 Ю 2 8000 м 9/5 300 м
[Cb cap Ac As Ci sp]
+25.7 +22.8 84 +34 +38 очень
душно
1011.8 995.7
09 15.09 ЮВ 2 9000 м 9/5 300 м
[Cb cap Ac As Ci sp]
+24.8 +22.6 88 +33 +33 очень
душно
1012.2 996.0
12 15.09 СВ 2 4000 м {дождь} 9/5 300 м
[Cb cap Ac As Ci sp]
+23.9 +22.9 94 +32 +32 очень
душно
1014.0 997.8 +27.1 0.0
15 15.09 С 3 4000 м 4/3 330 м
[Cu Sc Ac trans]
+22.4 +21.4 94 +29 +29 очень
душно
1014.2 998.0
21 15.09 С 2 6000 м 10/5 300 м
[Cb cap Ac lent Ci sp]
+21.3 +20.2 93 +26 +26 душно 1013.8 997.6
00 16.09 Ю 3 9000 м {дождь} 8/4 360 м
[Cu Sc Ac lent Ci sp]
+25.0 +21.7 82 +32 +36 очень
душно
1015.2 999.1 +20.2 0.0
03 16.09 Ю 3 10 км 5/3 360 м
[Cu Sc Ac lent Ci fib]
1013.1 996.9
06 16.09 Ю 2 8000 м 9/5 300 м
[Cb cap Ac As Ci sp]
+25.6 +23.0 86 +34 +38 очень
душно
1011.8 995.6
09 16.09 ЮЗ 1 8000 м 9/5 330 м
[Cb cap Ac trans Ci sp]
+25.4 +23.0 87 +34 +34 очень
душно
1011.9 995.8
12 16.09 штиль 0 4000 м слаб. дождь 10/5 300 м
[Cb cap Ac As Ci sp]
+24.9 +23.5 92 +34 +34 очень
душно
1014.0 997.8 +27.0 1
15 16.09 С 2 4000 м {дождь} 10/5 300 м
[Cb cap Ac trans Ci sp]
+23.9 +22.6 92 +31 +31 очень
душно
1013.5 997.4 0.0
21 16.09 С 2 6000 м 6/4 300 м
[Cb cap Ac trans Ci sp]
+21.6 +20.7 95 +27 +27 душно 1013.3 997.1
00 17.09 ЮЗ 2 10 км {дождь} 6/4 300 м
[Cb cap Ac trans Ci sp]
+25.6 +21.0 76 +32 +38 очень
душно
1015.2 999.0 +21.1 1
03 17.09 Ю 2 12 км 5/3 330 м
[Cu Sc Ac trans Ci fib]
+27.5 +22.5 74 +36 +49 очень
душно
1013.7 997.5
06 17.09 Ю 3 6000 м слаб. дождь 10/5 270 м
[Cb cap Ac cuf Ci ing]
+25.7 +23.1 86 +34 +37 очень
душно
1012.4 996.3 0.0
09 17.09 Ю 2 7000 м 10/5 300 м
[Cb cap Ac As Ci sp]
+25.1 +23.4 90 +34 +34 очень
душно
1013.1 997.0
12 17.09 С 2 5000 м 8/4 300 м
[Cb cap Ac trans Ci sp]
+24.3 +22.9 92 +32 +32 очень
душно
1014.9 998.7 +27.9

 

Местоположение метеостанции Факфак (Индонезия): широта -2.92 долгота 132.26 высота над уровнем моря 130 м.

В архиве по умолчанию представлена погода в Факфаке за последнюю неделю. Архивные данные за месяц целиком и за предыдущие месяцы, начиная с января 2011 года, Вы можете получить, выбрав интересующий диапазон дат из раскрывающегося списка и нажав кнопку "Ввод!".


*Определитесь, кто Вы:
робот инопланетянин человек

Внимание! Время в таблицах - всемирное. Для получения местного времени необходимо прибавить поправку, которая равна 9 ч.

Смотрите также архив погоды в соседних городах и на ближайших метеорологических станциях:

Погода в Каимана (Индонезия) (185 км)
Погода в Гесере (Индонезия) (187 км)
Погода в Аэропорту Соронг-Джефман (Индонезия) (256 км)
Погода в Маноквари (Индонезия) (302 км)
Погода в Туале (Индонезия) (312 км)
Погода в Неира (Индонезия) (317 км)
Погода в Набире (Индонезия) (363 км)
Погода в Амахаи (Индонезия) (378 км)
Погода в Серуи (Индонезия) (456 км)
Погода в Биаке (Индонезия) (470 км)

Пояснения к столбцам:

Ветер - указаны скорость ветра в м/с - средняя за 10 мин, порывы в срок и между сроками (в фигурных скобках) и направление, откуда дует ветер: С - северный, СВ - северо-восточный, В - восточный, ЮВ - юго-восточный, Ю - южный, ЮЗ - юго-западный, З - западный, СЗ - северо-западный.
Видимость - горизонтальная дальность видимости в метрах или километрах. При видимости от 1 до 10 км при отсутствии осадков обычно наблюдается дымка, при ухудшении видимости до 1 км и менее - туман. В сухую погоду видимость может ухудшаться дымом, пылью или мглою.
Явления - указаны атмосферные явления, наблюдавшиеся в срок или в последний час перед сроком; фигурными скобками обозначены явления, наблюдавшиеся между сроками (за 1-3 часа до срока); квадратными скобками обозначены град или гололедные отложения с указанием их диаметра в мм.
Облачность - указаны через наклонную черту общая и нижняя облачность в баллах и высота нижней границы облаков в метрах; квадратными скобками обозначены формы облаков: Ci - перистые, Cs - перисто-слоистые, Cc - перисто-кучевые, Ac - высококучевые, As - высокослоистые, Sc - слоисто-кучевые, Ns - слоисто-дождевые, Cu - кучевые, Cb - кучево-дождевые. Подробнее классификацию облаков см. в Атласе облаков (PDF).
T - Температура воздуха - температура, измеренная на высоте 2 м над землей.
Td - Температура точки росы - температура, при понижении до которой содержащийся в воздухе водяной пар достигнет насыщения.
f - Относительная влажность воздуха - влажноcть воздуха, измеренная на высоте 2 м над землей.
Te - Эффективная температура - температура, которую ощущает одетый по сезону человек в тени. Характеристика душности погоды. При расчете учитывается влияние влажности воздуха и скорости ветра на теплоощущения человека.
Tes - Эффективная температура на солнце - температура, которую ощущает человек, с поправкой на солнечный нагрев. Характеристика знойности погоды. Зависит от высоты солнца над горизонтом, облачности и скорости ветра. Ночью, в пасмурную погоду, а также при ветре 12 м/с и более поправка равна нулю.
P - Атмосферное давление - приведенное к уровню моря атмосферное давление.
Po - Атмосферное давление - измеренное на уровне метеостанции атмосферное давление.
Tmin - Минимальная температура - минимум температуры воздуха на высоте 2 м над землей.
Tmax - Максимальная температура - максимум температуры воздуха на высоте 2 м над землей.
R - Количество осадков - Количество выпавших осадков за период времени, мм. При наведении курсора мыши на число - период времени, за который выпало указанное количество осадков.
R24 - Количество осадков - Количество выпавших осадков за 24 часа, мм.
S - Снежный покров - Высота снежного покрова, см. При наведении курсора мыши на число - состояние снежного покрова и степень покрытия местности в баллах.